Хартфорд

США     41°45′55″N   72°40′10″W
темп.,
°C
ветер,
м/с
пор.,
м/с
влажн.,
%
обл.,
%
осадки,
мм/ч
давл.,
гПа
погр.,
м
20 сентября, пн
пн2023:00+15з00650 0.0 102310
02:00+14ссв11720 0.0 102512
05:00+12с11790 0.0 102636
08:00+14ссв12700 0.0 1028153
11:00+21ююв12530 0.0 1028696
14:00+24ююв22440 0.0 10271464
17:00+24ююв33475 0.0 10261290
20:00+16ю276934 0.0 1028240
21 сентября, вт
вт2123:00+14вюв0081100 0.0 103017
02:00+13всв118650 0.0 103021
05:00+12ссв11906 0.0 102937
08:00+14ссв2378100 0.0 1030203
11:00+19вюв1365100 0.0 1029624
14:00+22ююв345798 0.0 10271385
17:00+21ююв3563100 0.0 1026750
20:00+18юв2880100 0.1 1027367
22 сентября, ср
ср2223:00+16вюв1393100 0.0 1025101
02:00+17св129096 0.0 1024133
05:00+18в2896100 0.2 1021433
08:00+20ююв3109791 0.9 1020711
11:00+22ююв5109243 1.9 1019823
14:00+22ююв5119399 4.5 1017902
17:00+21ююв5129448 2.6 1016980
20:00+20ююв41294100 3.0 1015787
23 сентября, чт
чт2323:00+20ююв51286100 0.0 1014973
02:00+21ююв51286100 0.0 1012997
05:00+20ююв51492100 0.5 10111075
08:00+20ю41298100 10.0 1010890
11:00+20ююз51298100 15.3 10111071
14:00+15сз2597100 28.3 1012270
17:00+14зсз2497100 8.3 1013261
20:00+14ссз2994100 11.1 1015586
24 сентября, пт
пт2423:00+11зсз15894 0.0 1016198
02:00+10з11880 0.0 101710
05:00+9з11880 0.0 101820
08:00+10зсз16820 0.0 1020227
11:00+17сз35450 0.0 10211141
14:00+20сз35350 0.0 10201486
17:00+19зсз24510 0.0 1020699
20:00+13зсз11630 0.0 102110